K8FJG-13 Weather Reports


time (UTC)temp
C
wind
direction
speed
KPH
gust
KPH
rain 1hr
cm
rain 24hr
cm
rain mn
cm
humidity
%
barometer
mb
20260506070256 6 10 4.8 4.8 0.00 0.00 0.00 96 963.1
20260506062244 7 116 0.0 0.0 0.00 0.00 0.00 97 963.1
20260506061241 7 339 3.2 4.8 0.00 0.00 0.00 97 963.1
20260506060238 7 325 1.6 1.6 0.00 0.00 0.00 97 963.2
20260506051222 7 35 1.6 3.2 0.00 0.00 0.00 97 963.8
20260506050219 7 355 1.6 1.6 0.00 0.00 0.00 97 963.9
20260506044212 7 345 1.6 1.6 0.00 0.00 0.00 97 964.0
20260506043209 7 5 4.8 4.8 0.00 0.00 0.00 97 964.1
20260506042206 7 338 3.2 3.2 0.00 0.00 0.00 97 964.2
20260506041203 8 348 3.2 3.2 0.00 0.00 0.00 97 964.4
20260506040200 8 337 1.6 1.6 0.00 0.00 0.00 97 964.4
20260506035157 8 330 3.2 4.8 0.00 0.00 0.00 97 964.5
20260506034154 8 332 1.6 3.2 0.00 0.00 0.00 97 964.6
20260506033151 8 265 1.6 1.6 0.00 0.00 0.00 97 964.7
20260506032147 8 5 0.0 1.6 0.00 0.00 0.00 97 964.7
20260506031144 8 333 3.2 3.2 0.00 0.00 0.00 97 964.4
20260506030141 8 349 0.0 1.6 0.00 0.00 0.00 97 964.3
20260506025138 8 331 3.2 4.8 0.00 0.00 0.00 97 964.2
20260506024135 8 345 1.6 1.6 0.00 0.00 0.00 97 964.1
20260506023131 8 343 3.2 3.2 0.00 0.00 0.00 97 964.0
20260506022128 8 308 0.0 1.6 0.00 0.00 0.00 97 964.4
20260506021125 8 326 3.2 3.2 0.00 0.00 0.00 97 964.3
20260506020122 8 309 1.6 1.6 0.00 0.00 0.00 97 964.3
20260506015119 8 7 1.6 1.6 0.00 0.00 0.00 97 964.2
20260506014116 8 305 1.6 3.2 0.00 0.00 0.00 97 964.1
20260506013113 8 228 1.6 1.6 0.00 0.00 0.00 97 964.1
20260506012109 8 308 3.2 4.8 0.00 0.00 0.00 97 963.9
20260506011106 8 24 1.6 3.2 0.00 0.00 0.00 97 963.8
20260506010103 8 355 1.6 1.6 0.00 0.00 0.00 97 963.9
20260506005100 8 283 1.6 1.6 0.00 0.00 0.00 97 963.7
20260506004057 8 350 1.6 1.6 0.00 0.00 0.00 96 963.8
20260506003054 8 339 1.6 1.6 0.00 0.00 0.00 96 963.7
20260506002051 8 7 1.6 1.6 0.00 0.00 0.00 96 963.6
20260506001047 8 54 1.6 3.2 0.00 0.00 0.00 96 963.5
20260506000044 8 340 3.2 3.2 0.00 0.00 0.00 96 963.6
20260505235041 8 57 1.6 3.2 0.00 0.00 0.00 96 963.9
20260505234038 8 3 1.6 3.2 0.00 0.00 0.00 96 963.9
20260505233035 8 26 1.6 3.2 0.00 0.00 0.00 96 963.9
20260505232032 8 294 3.2 4.8 0.00 0.00 0.00 96 964.7
20260505231028 8 307 3.2 3.2 0.00 0.00 0.00 96 963.9
20260505230025 8 27 3.2 4.8 0.00 0.00 0.00 96 963.8
20260505225022 8 346 3.2 4.8 0.00 0.00 0.00 96 964.1
20260505224019 8 354 1.6 3.2 0.00 0.00 0.00 96 964.0
20260505223016 8 8 1.6 1.6 0.00 0.00 0.00 96 964.0
20260505222012 8 0 1.6 1.6 0.00 0.00 0.00 96 964.0
20260505221009 9 0 3.2 4.8 0.00 0.00 0.00 96 964.0
20260505220006 9 12 3.2 4.8 0.00 0.00 0.00 96 963.8
20260505215003 9 30 3.2 6.4 0.00 0.00 0.00 96 963.8
20260505214000 10 314 1.6 3.2 0.00 0.00 0.00 96 963.9
20260505212957 10 225 3.2 3.2 0.00 0.00 0.00 95 964.2
20260505211954 11 342 3.2 6.4 0.00 0.00 0.00 95 963.6
20260505210951 11 325 4.8 6.4 0.00 0.00 0.00 95 963.4
20260505205947 12 337 6.4 6.4 0.00 0.00 0.00 95 963.3
20260505204944 12 304 3.2 4.8 0.00 0.00 0.00 95 963.5
20260505203941 12 249 3.2 3.2 0.00 0.00 0.00 94 963.7
20260505202938 12 263 3.2 3.2 0.00 0.00 0.00 94 963.4
20260505201935 12 289 3.2 3.2 0.00 0.00 0.00 94 963.3
20260505200932 12 287 3.2 4.8 0.00 0.00 0.00 93 963.5
20260505195929 12 299 3.2 4.8 0.00 0.00 0.00 92 963.6
20260505194926 12 287 3.2 6.4 0.00 0.00 0.00 91 963.7
20260505193923 13 293 3.2 3.2 0.00 0.00 0.00 91 963.6
20260505192919 13 305 1.6 3.2 0.00 0.00 0.00 90 963.8
20260505191916 13 269 3.2 3.2 0.00 0.00 0.00 89 963.7
20260505190913 13 276 3.2 3.2 0.00 0.00 0.00 88 963.8
20260505185910 14 284 3.2 8.0 0.00 0.00 0.00 86 963.8
20260505184907 15 330 4.8 6.4 0.00 0.00 0.00 81 963.8
20260505183904 15 286 3.2 4.8 0.00 0.00 0.00 77 963.9
20260505182900 15 292 6.4 9.7 0.00 0.00 0.00 76 963.9
20260505181857 15 320 3.2 6.4 0.00 0.00 0.00 76 963.8
20260505180854 15 295 3.2 6.4 0.00 0.00 0.00 76 963.8
20260505175851 15 239 4.8 6.4 0.00 0.00 0.00 75 963.8
20260505174848 15 281 6.4 11.3 0.00 0.00 0.00 75 963.7
20260505173845 15 281 4.8 8.0 0.00 0.00 0.00 75 963.8
20260505172841 16 306 4.8 8.0 0.00 0.00 0.00 74 963.6
20260505171838 16 290 3.2 8.0 0.00 0.00 0.00 74 963.5
20260505170835 15 281 8.0 12.9 0.00 0.00 0.00 74 963.4
20260505165832 15 283 8.0 12.9 0.00 0.00 0.00 74 963.5
20260505164829 16 294 6.4 8.0 0.00 0.00 0.00 72 963.4
20260505163826 17 285 8.0 22.5 0.00 0.00 0.00 70 963.3
20260505162823 18 283 8.0 17.7 0.00 0.00 0.00 64 963.1
20260505161820 20 276 9.7 16.1 0.00 0.00 0.00 60 962.8
20260505160816 20 277 4.8 6.4 0.00 0.00 0.00 60 962.9
20260505152804 19 234 4.8 12.9 0.00 0.00 0.00 61 962.2
20260505151801 18 186 4.8 9.7 0.00 0.00 0.00 62 962.3
20260505150757 18 316 3.2 6.4 0.00 0.00 0.00 65 962.4
20260505124712 16 229 3.2 4.8 0.00 0.00 0.00 71 961.8
20260505123709 16 229 3.2 4.8 0.00 0.00 0.00 71 961.6
20260505122706 16 192 3.2 4.8 0.00 0.00 0.00 70 961.4
20260505121702 16 140 4.8 6.4 0.00 0.00 0.00 70 961.1
20260505120659 16 204 4.8 11.3 0.00 0.00 0.00 69 961.0
20260505115656 16 180 4.8 9.7 0.00 0.00 0.00 69 961.2
20260505114653 17 235 4.8 8.0 0.00 0.00 0.00 66 961.1
20260505113650 17 203 3.2 4.8 0.00 0.00 0.00 66 960.9
20260505112647 17 232 3.2 6.4 0.00 0.00 0.00 66 961.0
20260505111643 17 252 3.2 6.4 0.00 0.00 0.00 65 960.8
20260505110640 17 201 4.8 6.4 0.00 0.00 0.00 66 960.7
20260505101624 17 195 6.4 14.5 0.00 0.00 0.00 65 960.0
20260505100621 17 207 4.8 6.4 0.00 0.00 0.00 65 960.0
20260505095618 17 250 3.2 6.4 0.00 0.00 0.00 66 959.7
20260505094615 17 228 3.2 3.2 0.00 0.00 0.00 67 959.7
20260505093612 17 193 1.6 3.2 0.00 0.00 0.00 66 959.5
20260505092609 17 188 3.2 4.8 0.00 0.00 0.00 65 959.3
20260505091606 17 227 3.2 6.4 0.00 0.00 0.00 65 959.3
20260505090603 17 208 4.8 6.4 0.00 0.00 0.00 64 959.3
20260505085559 17 225 6.4 11.3 0.00 0.00 0.00 64 959.3
20260505084556 17 239 4.8 6.4 0.00 0.00 0.00 64 959.4
20260505083553 17 217 3.2 6.4 0.00 0.00 0.00 65 959.4
20260505082550 17 279 3.2 6.4 0.00 0.00 0.00 65 959.3
20260505081547 17 289 6.4 12.9 0.00 0.00 0.00 66 959.2
20260505080544 17 196 3.2 6.4 0.00 0.00 0.00 66 959.1
20260505075541 17 177 4.8 8.0 0.00 0.00 0.00 67 959.1
20260505074538 17 181 3.2 6.4 0.00 0.00 0.00 67 959.0
20260505073535 17 215 4.8 6.4 0.00 0.00 0.00 67 959.0
20260505072532 18 246 3.2 4.8 0.00 0.00 0.00 66 959.0
20260505071528 18 159 3.2 6.4 0.00 0.00 0.00 64 958.9